Location: Battersea Observatory
(44.4318°N, 76.3841°W)
Time: 00:38:02
(UTC-04:00)

Vanguard 2 Rocket - Visible Passes

Search period start: 10 August 2022 00:00
Search period end: 20 August 2022 00:00
Orbit: 553 x 3323 km, 32.9° (Epoch: 09 August)

Date Brightness Start Highest point End Pass type
(mag) Time Alt. Az. Time Alt. Az. Time Alt. Az.
10 Aug 9.7 20:55:54 10° W 21:11:19 36° SSW 21:21:47 10° SSE visible
10 Aug 10.0 23:21:39 10° WSW 23:23:22 10° SW 23:24:59 10° SW visible
11 Aug 9.9 22:13:38 10° W 22:23:32 19° SW 22:31:06 10° S visible
12 Aug 9.9 21:09:08 10° W 21:23:15 29° SW 21:33:25 10° SSE visible
13 Aug 10.2 22:29:15 10° WSW 22:35:08 13° SW 22:40:12 10° SSW visible
14 Aug 10.1 21:22:59 10° W 21:34:58 22° SW 21:44:17 10° S visible
15 Aug 10.2 20:18:45 10° W 20:34:18 31° SW 20:46:13 10° SSE visible
16 Aug 10.5 21:38:08 10° W 21:46:32 15° SW 21:53:41 10° SSW visible
17 Aug 10.4 20:32:33 10° W 20:46:01 24° SW 20:57:00 10° S visible
19 Aug 10.7 20:47:33 10° W 20:57:35 17° SW 21:06:24 10° SSW visible
